When you browse on this site, cookies collect data to enhance your experience and personalize the content and advertising you see.
Visit our Privacy Policy to learn more. By continuing to use the site, you agree to this use of cookies and data.
  • In Spain
  • List of Countries
  • For 7 days
  • Water Temperature
  • Weather Map
  • Weather Widgets
  • user-avatar
    Login

    Hourly Weather Soma Bey

    Today, 22 October, Tuesday

    Time Temperature Precipitation Wind Pressure Humidity
    00:00 +26°C° 0 mm 2 mps 746 mmHg 35%
    01:00 +26°C° 0 mm 2 mps 746 mmHg 36%
    02:00 +25°C° 0 mm 2 mps 745 mmHg 37%
    03:00 +25°C° 0 mm 2 mps 746 mmHg 38%
    04:00 +24°C° 0 mm 2 mps 746 mmHg 39%
    05:00 +24°C° 0 mm 2 mps 746 mmHg 40%
    06:00 +26°C° 0 mm 2 mps 746 mmHg 35%
    07:00 +29°C° 0 mm 2 mps 746 mmHg 29%
    08:00 +32°C° 0 mm 2 mps 747 mmHg 24%
    09:00 +34°C° 0 mm 2 mps 747 mmHg 23%
    10:00 +36°C° 0 mm 3 mps 747 mmHg 23%
    11:00 +37°C° 0 mm 3 mps 747 mmHg 22%
    12:00 +37°C° 0 mm 3 mps 746 mmHg 23%
    13:00 +36°C° 0 mm 3 mps 746 mmHg 25%
    14:00 +36°C° 0 mm 3 mps 745 mmHg 26%
    15:00 +35°C° 0 mm 2 mps 745 mmHg 30%
    16:00 +32°C° 0 mm 1 mps 745 mmHg 34%
    17:00 +30°C° 0 mm 1 mps 745 mmHg 38%
    18:00 +29°C° 0 mm 1 mps 745 mmHg 40%
    19:00 +28°C° 0 mm 1 mps 746 mmHg 41%
    20:00 +27°C° 0 mm 2 mps 746 mmHg 43%
    21:00 +27°C° 0 mm 2 mps 746 mmHg 41%
    22:00 +27°C° 0 mm 2 mps 746 mmHg 39%
    23:00 +27°C° 0 mm 2 mps 746 mmHg 37%

    Tomorrow, 23 October, Wednesday

    Time Temperature Precipitation Wind Pressure Humidity
    00:00 +27°C° 0 mm 3 mps 746 mmHg 38%
    01:00 +26°C° 0 mm 3 mps 746 mmHg 39%
    02:00 +25°C° 0 mm 4 mps 745 mmHg 40%
    03:00 +25°C° 0 mm 3 mps 746 mmHg 41%
    04:00 +25°C° 0 mm 3 mps 746 mmHg 41%
    05:00 +24°C° 0 mm 3 mps 746 mmHg 42%
    06:00 +26°C° 0 mm 3 mps 747 mmHg 40%
    07:00 +28°C° 0 mm 3 mps 747 mmHg 37%
    08:00 +30°C° 0 mm 2 mps 747 mmHg 35%
    09:00 +31°C° 0 mm 3 mps 747 mmHg 34%
    10:00 +33°C° 0 mm 4 mps 747 mmHg 34%
    11:00 +35°C° 0 mm 5 mps 747 mmHg 33%
    12:00 +34°C° 0 mm 5 mps 747 mmHg 33%
    13:00 +34°C° 0 mm 5 mps 746 mmHg 34%
    14:00 +34°C° 0 mm 4 mps 745 mmHg 35%
    15:00 +33°C° 0 mm 3 mps 746 mmHg 39%
    16:00 +30°C° 0 mm 2 mps 746 mmHg 44%
    17:00 +29°C° 0 mm 1 mps 746 mmHg 49%
    18:00 +27°C° 0 mm 1 mps 746 mmHg 55%
    19:00 +26°C° 0 mm 1 mps 747 mmHg 61%
    20:00 +24°C° 0 mm 1 mps 747 mmHg 67%
    21:00 +24°C° 0 mm 1 mps 747 mmHg 63%
    22:00 +24°C° 0 mm 2 mps 747 mmHg 60%
    23:00 +24°C° 0 mm 2 mps 747 mmHg 56%

    Day after tomorrow, 24 October, Thursday

    Time Temperature Precipitation Wind Pressure Humidity
    00:00 +24°C° 0 mm 3 mps 747 mmHg 57%
    01:00 +22°C° 0 mm 3 mps 747 mmHg 58%
    02:00 +22°C° 0 mm 3 mps 747 mmHg 58%
    03:00 +21°C° 0 mm 3 mps 747 mmHg 57%
    04:00 +21°C° 0 mm 3 mps 747 mmHg 55%
    05:00 +21°C° 0 mm 3 mps 747 mmHg 53%
    06:00 +24°C° 0 mm 3 mps 747 mmHg 47%
    07:00 +26°C° 0 mm 2 mps 748 mmHg 41%
    08:00 +28°C° 0 mm 2 mps 748 mmHg 34%
    09:00 +30°C° 0 mm 3 mps 748 mmHg 31%
    10:00 +32°C° 0 mm 4 mps 748 mmHg 28%
    11:00 +33°C° 0 mm 5 mps 748 mmHg 24%
    12:00 +33°C° 0 mm 5 mps 747 mmHg 25%
    13:00 +33°C° 0 mm 5 mps 747 mmHg 26%
    14:00 +33°C° 0 mm 5 mps 747 mmHg 27%
    15:00 +32°C° 0 mm 4 mps 747 mmHg 31%
    16:00 +29°C° 0 mm 4 mps 746 mmHg 35%
    17:00 +28°C° 0 mm 3 mps 746 mmHg 38%
    18:00 +26°C° 0 mm 2 mps 747 mmHg 45%
    19:00 +24°C° 0 mm 1 mps 747 mmHg 53%
    20:00 +22°C° 0 mm 1 mps 748 mmHg 60%
    21:00 +22°C° 0 mm 1 mps 748 mmHg 58%
    22:00 +22°C° 0 mm 1 mps 748 mmHg 55%
    23:00 +21°C° 0 mm 1 mps 748 mmHg 53%

    25 October, Friday

    Time Temperature Precipitation Wind Pressure Humidity
    00:00 +21°C° 0 mm 1 mps 747 mmHg 51%
    01:00 +20°C° 0 mm 2 mps 747 mmHg 48%
    02:00 +19°C° 0 mm 2 mps 747 mmHg 46%
    03:00 +19°C° 0 mm 2 mps 747 mmHg 47%
    04:00 +19°C° 0 mm 2 mps 747 mmHg 48%
    05:00 +19°C° 0 mm 2 mps 747 mmHg 49%
    06:00 +21°C° 0 mm 2 mps 748 mmHg 44%
    07:00 +25°C° 0 mm 2 mps 748 mmHg 38%
    08:00 +27°C° 0 mm 2 mps 749 mmHg 32%
    09:00 +29°C° 0 mm 3 mps 748 mmHg 29%
    10:00 +30°C° 0 mm 3 mps 748 mmHg 26%
    11:00 +32°C° 0 mm 4 mps 748 mmHg 23%
    12:00 +32°C° 0 mm 4 mps 748 mmHg 26%
    13:00 +32°C° 0 mm 4 mps 747 mmHg 28%
    14:00 +32°C° 0 mm 5 mps 747 mmHg 31%
    15:00 +30°C° 0 mm 4 mps 747 mmHg 36%
    16:00 +28°C° 0 mm 4 mps 747 mmHg 42%
    17:00 +27°C° 0 mm 3 mps 747 mmHg 47%
    18:00 +25°C° 0 mm 3 mps 748 mmHg 52%
    19:00 +24°C° 0 mm 3 mps 748 mmHg 56%
    20:00 +21°C° 0 mm 2 mps 748 mmHg 61%
    21:00 +21°C° 0 mm 3 mps 748 mmHg 60%
    22:00 +21°C° 0 mm 3 mps 748 mmHg 60%
    23:00 +21°C° 0 mm 3 mps 748 mmHg 59%

    26 October, Saturday

    Time Temperature Precipitation Wind Pressure Humidity
    00:00 +20°C° 0 mm 3 mps 748 mmHg 59%
    01:00 +20°C° 0 mm 3 mps 748 mmHg 59%
    02:00 +20°C° 0 mm 3 mps 748 mmHg 59%
    03:00 +20°C° 0 mm 3 mps 748 mmHg 60%
    04:00 +19°C° 0 mm 3 mps 748 mmHg 61%
    05:00 +19°C° 0 mm 4 mps 749 mmHg 62%
    06:00 +21°C° 0 mm 4 mps 749 mmHg 55%
    07:00 +24°C° 0 mm 3 mps 749 mmHg 48%
    08:00 +26°C° 0 mm 3 mps 750 mmHg 40%
    09:00 +28°C° 0 mm 4 mps 750 mmHg 37%
    10:00 +29°C° 0 mm 5 mps 750 mmHg 33%
    11:00 +32°C° 0 mm 6 mps 750 mmHg 30%
    12:00 +32°C° 0 mm 7 mps 749 mmHg 33%
    13:00 +32°C° 0 mm 8 mps 748 mmHg 35%
    14:00 +32°C° 0 mm 9 mps 748 mmHg 38%
    15:00 +31°C° 0 mm 8 mps 748 mmHg 42%
    16:00 +29°C° 0 mm 8 mps 748 mmHg 45%
    17:00 +27°C° 0 mm 8 mps 748 mmHg 49%
    18:00 +26°C° 0 mm 7 mps 748 mmHg 55%
    19:00 +24°C° 0 mm 6 mps 748 mmHg 61%
    20:00 +23°C° 0 mm 5 mps 749 mmHg 66%
    21:00 +23°C° 0 mm 5 mps 748 mmHg 62%
    22:00 +23°C° 0 mm 6 mps 748 mmHg 57%
    23:00 +23°C° 0 mm 6 mps 748 mmHg 52%

    27 October, Sunday

    Time Temperature Precipitation Wind Pressure Humidity
    00:00 +22°C° 0 mm 5 mps 748 mmHg 53%
    01:00 +22°C° 0 mm 5 mps 748 mmHg 53%
    02:00 +22°C° 0 mm 4 mps 748 mmHg 54%
    03:00 +21°C° 0 mm 4 mps 748 mmHg 57%
    04:00 +20°C° 0 mm 4 mps 748 mmHg 59%
    05:00 +19°C° 0 mm 4 mps 748 mmHg 62%
    06:00 +22°C° 0 mm 5 mps 748 mmHg 53%
    07:00 +25°C° 0 mm 5 mps 749 mmHg 43%
    08:00 +27°C° 0 mm 5 mps 749 mmHg 34%
    09:00 +28°C° 0 mm 6 mps 749 mmHg 33%
    10:00 +29°C° 0 mm 6 mps 749 mmHg 32%
    11:00 +32°C° 0 mm 7 mps 749 mmHg 31%
    12:00 +32°C° 0 mm 7 mps 748 mmHg 32%
    13:00 +32°C° 0 mm 7 mps 747 mmHg 32%
    14:00 +32°C° 0 mm 7 mps 747 mmHg 32%
    15:00 +30°C° 0 mm 6 mps 747 mmHg 38%
    16:00 +28°C° 0 mm 5 mps 747 mmHg 44%
    17:00 +26°C° 0 mm 4 mps 747 mmHg 50%
    18:00 +25°C° 0 mm 5 mps 747 mmHg 55%
    19:00 +23°C° 0 mm 5 mps 747 mmHg 60%
    20:00 +22°C° 0 mm 5 mps 747 mmHg 65%
    21:00 +21°C° 0 mm 5 mps 747 mmHg 61%
    22:00 +21°C° 0 mm 5 mps 747 mmHg 57%
    23:00 +21°C° 0 mm 5 mps 747 mmHg 53%

    28 October, Monday

    Time Temperature Precipitation Wind Pressure Humidity
    00:00 +20°C° 0 mm 5 mps 747 mmHg 53%
    01:00 +20°C° 0 mm 4 mps 747 mmHg 53%
    02:00 +19°C° 0 mm 4 mps 747 mmHg 53%
    03:00 +19°C° 0 mm 4 mps 747 mmHg 54%
    04:00 +19°C° 0 mm 4 mps 747 mmHg 55%
    05:00 +18°C° 0 mm 4 mps 747 mmHg 56%
    06:00 +21°C° 0 mm 4 mps 747 mmHg 49%
    07:00 +23°C° 0 mm 4 mps 747 mmHg 42%
    08:00 +27°C° 0 mm 4 mps 747 mmHg 35%
    09:00 +28°C° 0 mm 5 mps 747 mmHg 34%
    10:00 +30°C° 0 mm 5 mps 747 mmHg 32%
    11:00 +32°C° 0 mm 6 mps 747 mmHg 30%
    12:00 +32°C° 0 mm 6 mps 747 mmHg 31%
    13:00 +33°C° 0 mm 6 mps 746 mmHg 33%
    14:00 +33°C° 0 mm 6 mps 746 mmHg 34%
    15:00 +30°C° 0 mm 5 mps 746 mmHg 41%
    16:00 +28°C° 0 mm 5 mps 746 mmHg 49%
    17:00 +27°C° 0 mm 4 mps 746 mmHg 56%
    18:00 +25°C° 0 mm 4 mps 746 mmHg 60%
    19:00 +23°C° 0 mm 4 mps 746 mmHg 65%
    20:00 +21°C° 0 mm 4 mps 747 mmHg 69%
    21:00 +21°C° 0 mm 4 mps 747 mmHg 68%
    22:00 +20°C° 0 mm 4 mps 747 mmHg 68%
    23:00 +20°C° 0 mm 3 mps 747 mmHg 67%
    Show more